• In Kazakhstan
  • List of Countries
  • For 7 days
  • Water Temperature
  • Satellite Maps
  • Weather Map
  • News
  • Weather Widgets
  • user-avatar
    Login

    Hourly Weather Brighton

    Today, 21 July, Sunday

    Time Temperature Precipitation Wind Pressure Humidity
    00:00 +13°C° 0 mm 5 mps 758 mmHg 85%
    01:00 +12°C° 0 mm 4 mps 758 mmHg 87%
    02:00 +12°C° 0 mm 4 mps 759 mmHg 89%
    03:00 +12°C° 0 mm 4 mps 759 mmHg 91%
    04:00 +12°C° 0 mm 3 mps 759 mmHg 89%
    05:00 +13°C° 0 mm 3 mps 760 mmHg 88%
    06:00 +14°C° 0 mm 3 mps 760 mmHg 86%
    07:00 +16°C° 0 mm 3 mps 760 mmHg 81%
    08:00 +18°C° 0 mm 4 mps 761 mmHg 77%
    09:00 +19°C° 0 mm 5 mps 761 mmHg 72%
    10:00 +20°C° 0 mm 5 mps 761 mmHg 72%
    11:00 +20°C° 0 mm 6 mps 762 mmHg 71%
    12:00 +20°C° 0 mm 6 mps 762 mmHg 70%
    13:00 +21°C° 0 mm 6 mps 762 mmHg 69%
    14:00 +21°C° 0 mm 6 mps 762 mmHg 68%
    15:00 +21°C° 0 mm 6 mps 762 mmHg 68%
    16:00 +20°C° 0 mm 5 mps 762 mmHg 70%
    17:00 +20°C° 0 mm 5 mps 762 mmHg 72%
    18:00 +19°C° 0 mm 5 mps 761 mmHg 75%
    19:00 +18°C° 0 mm 4 mps 762 mmHg 81%
    20:00 +17°C° 0 mm 4 mps 762 mmHg 87%
    21:00 +14°C° 0 mm 4 mps 762 mmHg 93%
    22:00 +15°C° 0 mm 4 mps 762 mmHg 92%
    23:00 +15°C° 0 mm 4 mps 762 mmHg 92%

    Tomorrow, 22 July, Monday

    Time Temperature Precipitation Wind Pressure Humidity
    00:00 +15°C° 0 mm 4 mps 762 mmHg 91%
    01:00 +15°C° 0 mm 5 mps 762 mmHg 92%
    02:00 +15°C° 0 mm 5 mps 762 mmHg 93%
    03:00 +15°C° 0 mm 5 mps 762 mmHg 93%
    04:00 +16°C° 0 mm 5 mps 762 mmHg 91%
    05:00 +16°C° 0 mm 5 mps 762 mmHg 89%
    06:00 +17°C° 0 mm 5 mps 762 mmHg 87%
    07:00 +19°C° 0 mm 5 mps 762 mmHg 83%
    08:00 +20°C° 0 mm 5 mps 762 mmHg 79%
    09:00 +21°C° 0 mm 5 mps 763 mmHg 74%
    10:00 +21°C° 0 mm 5 mps 763 mmHg 73%
    11:00 +22°C° 0 mm 5 mps 763 mmHg 71%
    12:00 +23°C° 0 mm 5 mps 763 mmHg 69%
    13:00 +23°C° 0 mm 5 mps 763 mmHg 69%
    14:00 +23°C° 0 mm 5 mps 762 mmHg 68%
    15:00 +23°C° 0 mm 4 mps 762 mmHg 68%
    16:00 +23°C° 0 mm 4 mps 762 mmHg 70%
    17:00 +22°C° 0 mm 3 mps 762 mmHg 73%
    18:00 +22°C° 0 mm 3 mps 762 mmHg 75%
    19:00 +20°C° 0 mm 2 mps 762 mmHg 80%
    20:00 +20°C° 0 mm 1 mps 762 mmHg 84%
    21:00 +19°C° 0 mm 1 mps 762 mmHg 89%
    22:00 +16°C° 0 mm 0 mps 762 mmHg 89%
    23:00 +16°C° 0 mm 0 mps 762 mmHg 89%

    Day after tomorrow, 23 July, Tuesday

    Time Temperature Precipitation Wind Pressure Humidity
    00:00 +16°C° 0 mm 0 mps 762 mmHg 88%
    01:00 +16°C° 0 mm 0 mps 761 mmHg 88%
    02:00 +18°C° 0 mm 1 mps 761 mmHg 87%
    03:00 +17°C° 0 mm 2 mps 761 mmHg 87%
    04:00 +18°C° 0 mm 2 mps 761 mmHg 84%
    05:00 +18°C° 0 mm 3 mps 760 mmHg 81%
    06:00 +19°C° 0 mm 3 mps 760 mmHg 78%
    07:00 +21°C° 0 mm 4 mps 760 mmHg 74%
    08:00 +22°C° 0 mm 4 mps 760 mmHg 71%
    09:00 +25°C° 0 mm 5 mps 760 mmHg 67%
    10:00 +26°C° 0 mm 5 mps 759 mmHg 63%
    11:00 +27°C° 0 mm 5 mps 759 mmHg 60%
    12:00 +28°C° 0 mm 5 mps 759 mmHg 56%
    13:00 +28°C° 0 mm 5 mps 758 mmHg 55%
    14:00 +28°C° 0 mm 5 mps 758 mmHg 54%
    15:00 +29°C° 0 mm 5 mps 758 mmHg 53%
    16:00 +28°C° 0 mm 6 mps 757 mmHg 57%
    17:00 +27°C° 0 mm 6 mps 757 mmHg 60%
    18:00 +26°C° 0 mm 6 mps 756 mmHg 64%
    19:00 +24°C° 0 mm 6 mps 756 mmHg 67%
    20:00 +23°C° 0 mm 6 mps 756 mmHg 69%
    21:00 +22°C° 0 mm 6 mps 756 mmHg 72%
    22:00 +22°C° 0.2 mm 6 mps 756 mmHg 73%
    23:00 +22°C° 0.2 mm 6 mps 755 mmHg 73%

    24 July, Wednesday

    Time Temperature Precipitation Wind Pressure Humidity
    00:00 +22°C° 0.2 mm 5 mps 755 mmHg 73%
    01:00 +22°C° 0.1 mm 5 mps 755 mmHg 74%
    02:00 +21°C° 0.1 mm 5 mps 754 mmHg 74%
    03:00 +21°C° 0.1 mm 4 mps 754 mmHg 75%
    04:00 +21°C° 0.3 mm 4 mps 754 mmHg 75%
    05:00 +22°C° 0.3 mm 4 mps 754 mmHg 76%
    06:00 +22°C° 0.3 mm 4 mps 754 mmHg 76%
    07:00 +23°C° 0 mm 4 mps 754 mmHg 75%
    08:00 +25°C° 0 mm 4 mps 754 mmHg 73%
    09:00 +26°C° 0 mm 4 mps 754 mmHg 72%
    10:00 +26°C° 0 mm 4 mps 754 mmHg 70%
    11:00 +27°C° 0 mm 4 mps 754 mmHg 69%
    12:00 +27°C° 0 mm 4 mps 755 mmHg 67%
    13:00 +27°C° 0 mm 4 mps 754 mmHg 67%
    14:00 +28°C° 0 mm 4 mps 754 mmHg 67%
    15:00 +28°C° 0 mm 4 mps 754 mmHg 66%
    16:00 +27°C° 0 mm 4 mps 754 mmHg 68%
    17:00 +26°C° 0 mm 3 mps 754 mmHg 70%
    18:00 +25°C° 0 mm 3 mps 754 mmHg 71%
    19:00 +24°C° 0 mm 2 mps 754 mmHg 73%
    20:00 +22°C° 0 mm 1 mps 754 mmHg 75%
    21:00 +20°C° 0 mm 1 mps 754 mmHg 76%
    22:00 +21°C° 0 mm 1 mps 754 mmHg 74%
    23:00 +20°C° 0 mm 2 mps 753 mmHg 71%

    25 July, Thursday

    Time Temperature Precipitation Wind Pressure Humidity
    00:00 +20°C° 0 mm 2 mps 753 mmHg 69%
    01:00 +20°C° 0.2 mm 3 mps 753 mmHg 72%
    02:00 +20°C° 0.2 mm 3 mps 752 mmHg 76%
    03:00 +19°C° 0.2 mm 4 mps 752 mmHg 79%
    04:00 +20°C° 0.1 mm 4 mps 751 mmHg 81%
    05:00 +21°C° 0.1 mm 4 mps 751 mmHg 83%
    06:00 +22°C° 0.1 mm 4 mps 751 mmHg 85%
    07:00 +25°C° 0.1 mm 4 mps 751 mmHg 78%
    08:00 +26°C° 0.1 mm 4 mps 750 mmHg 71%
    09:00 +28°C° 0.1 mm 4 mps 750 mmHg 64%
    10:00 +28°C° 0.1 mm 4 mps 750 mmHg 61%
    11:00 +29°C° 0.1 mm 4 mps 750 mmHg 59%
    12:00 +29°C° 0.1 mm 4 mps 750 mmHg 56%
    13:00 +27°C° 0.3 mm 4 mps 750 mmHg 64%
    14:00 +26°C° 0.3 mm 4 mps 750 mmHg 72%
    15:00 +23°C° 0.3 mm 5 mps 750 mmHg 79%
    16:00 +22°C° 0.2 mm 5 mps 750 mmHg 81%
    17:00 +22°C° 0.2 mm 5 mps 750 mmHg 82%
    18:00 +21°C° 0.2 mm 5 mps 750 mmHg 84%
    19:00 +20°C° 0 mm 5 mps 751 mmHg 84%
    20:00 +19°C° 0 mm 5 mps 751 mmHg 84%
    21:00 +17°C° 0 mm 5 mps 751 mmHg 84%
    22:00 +17°C° 0 mm 5 mps 752 mmHg 85%
    23:00 +17°C° 0 mm 6 mps 752 mmHg 86%

    26 July, Friday

    Time Temperature Precipitation Wind Pressure Humidity
    00:00 +17°C° 0 mm 6 mps 752 mmHg 87%
    01:00 +16°C° 0 mm 8 mps 752 mmHg 85%
    02:00 +16°C° 0 mm 9 mps 752 mmHg 84%
    03:00 +16°C° 0 mm 10 mps 752 mmHg 82%
    04:00 +16°C° 0 mm 10 mps 752 mmHg 80%
    05:00 +16°C° 0 mm 11 mps 752 mmHg 78%
    06:00 +16°C° 0 mm 11 mps 752 mmHg 76%
    07:00 +15°C° 0.2 mm 12 mps 752 mmHg 78%
    08:00 +15°C° 0.2 mm 12 mps 752 mmHg 80%
    09:00 +17°C° 0.2 mm 13 mps 753 mmHg 83%
    10:00 +17°C° 0.3 mm 12 mps 753 mmHg 82%
    11:00 +17°C° 0.3 mm 12 mps 753 mmHg 81%
    12:00 +18°C° 0.3 mm 11 mps 754 mmHg 80%
    13:00 +18°C° 0 mm 11 mps 754 mmHg 76%
    14:00 +19°C° 0 mm 11 mps 754 mmHg 72%
    15:00 +21°C° 0 mm 10 mps 754 mmHg 68%
    16:00 +19°C° 0 mm 10 mps 755 mmHg 70%
    17:00 +19°C° 0 mm 9 mps 755 mmHg 71%
    18:00 +18°C° 0 mm 9 mps 756 mmHg 73%
    19:00 +17°C° 0 mm 8 mps 756 mmHg 78%
    20:00 +16°C° 0 mm 7 mps 757 mmHg 83%
    21:00 +15°C° 0 mm 6 mps 757 mmHg 89%
    22:00 +14°C° 0 mm 5 mps 757 mmHg 89%
    23:00 +13°C° 0 mm 5 mps 758 mmHg 88%
    Show more